RH
104 106 104 104 108 106 102 102 105 106 105 105 104 103 104 105 105 103 103 106 103 102 105 105 105 105 104 106 108 108 108 106 103 102 99 98 97 97 96 94 90 86 85 85 85 86 86 85 84 85 87 91 95 96 95 93 93 94 95 95 94 95 95
104 104 103 103 104 103 103 102 102 104 103 102 102 103 102 102 103 101 102 105 105 104 105 105 106 107 107 109 109 108 107 106 105 105 104 104 103 102 101 98 94 90 87 86 86 86 87 87 87 89 90 92 96 99 99 99 100 101 99 97 96 99 103
105 105 103 104 104 102 103 104 102 102 103 102 102 103 102 104 106 104 102 104 105 106 105 103 103 105 106 105 103 103 104 104 104 105 106 106 106 105 104 104 103 99 96 95 94 93 95 98 99 100 100 101 103 106 107 107 108 107 105 107 108 106 108
106 110 105 103 106 104 104 106 105 103 104 104 104 103 102 103 105 104 102 101 99 99 99 96 96 98 100 99 97 99 103 103 102 103 103 102 102 103 104 104 105 102 99 98 98 97 100 103 103 104 105 105 106 108 109 108 109 107 105 107 108 106 109
105 109 105 103 107 106 105 106 107 105 103 102 103 103 101 100 101 100 100 100 98 97 97 96 97 98 99 100 101 102 103 104 104 104 102 100 99 100 102 101 100 101 99 96 97 98 98 100 102 103 103 104 107 107 104 105 108 108 104 104 106 107 109
105 106 105 105 106 105 105 106 104 104 104 103 102 103 103 102 102 102 102 103 103 102 100 100 102 103 101 101 104 107 105 102 104 106 104 102 100 100 102 101 100 102 102 98 97 98 97 98 102 104 102 102 105 106 102 101 105 107 105 108 111 108 103
107 105 104 106 108 104 104 107 105 102 103 105 105 104 103 104 104 104 103 103 104 106 104 100 102 107 106 102 102 108 107 101 102 107 105 104 103 102 105 107 103 102 104 103 99 99 100 99 100 104 104 102 103 107 105 103 108 111 109 107 106 104 100
108 107 104 105 109 106 103 106 108 106 104 106 108 107 105 104 105 106 105 103 105 109 108 102 101 107 109 104 101 106 109 103 102 105 104 102 102 100 102 106 103 98 99 102 100 98 97 97 97 99 101 100 100 105 108 106 106 106 103 100 99 98 97
108 109 108 107 108 108 105 104 105 106 105 105 107 108 107 106 107 109 108 106 108 110 109 107 106 109 108 105 104 109 110 107 105 107 107 105 102 99 99 100 99 96 95 97 97 95 93 93 93 94 97 98 98 101 103 101 97 96 95 95 92 90 89
110 111 112 112 111 110 109 107 105 104 103 102 101 102 103 102 102 103 103 103 105 105 106 107 107 108 106 104 105 108 108 107 105 105 106 105 102 100 98 97 95 94 93 92 92 92 90 90 90 92 94 95 96 96 95 93 91 90 90 87 85 85 87
99 100 101 102 103 103 103 103 101 100 99 98 97 96 95 94 93 94 94 94 95 96 98 99 98 99 99 99 100 100 99 99 99 99 98 98 97 95 94 93 91 90 90 88 87 87 87 87 88 90 91 92 92 92 91 89 85 83 82 82 82 85 87
74 75 75 76 77 79 80 80 80 81 81 83 84 85 85 84 84 86 86 86 87 87 87 88 87 87 87 88 89 89 88 88 89 89 89 87 87 86 85 85 85 84 84 83 82 82 81 83 86 88 88 89 90 88 85 81 78 78 80 81 82 86 91
61 61 61 61 61 61 62 62 62 62 63 64 66 68 68 69 70 72 73 73 74 74 74 74 74 73 73 74 76 76 76 77 77 77 76 74 73 73 72 74 75 76 76 76 77 78 79 83 87 88 90 91 92 88 82 80 81 81 81 82 84 89 94
52 53 52 52 53 52 52 51 50 49 48 48 48 48 48 48 49 51 52 54 55 56 57 58 58 59 60 61 62 63 63 64 63 63 62 61 60 60 60 62 63 65 68 69 69 71 75 81 84 87 90 92 91 87 83 81 82 80 79 81 85 90 96
46 47 46 46 46 45 45 44 42 41 40 39 38 37 36 36 36 37 37 39 41 41 42 43 43 44 45 46 47 48 48 49 49 48 48 48 49 51 53 54 56 60 63 63 62 64 68 72 75 77 80 81 80 79 76 73 71 69 70 74 79 85 92
42 41 41 41 40 39 39 39 38 37 36 35 34 33 32 32 32 32 33 33 35 35 37 38 38 39 39 40 41 41 42 42 42 41 41 41 42 44 46 48 53 58 63 64 64 65 66 66 65 63 63 63 63 64 63 59 56 56 59 64 69 74 78
38 38 38 38 38 37 37 37 36 35 34 34 33 32 31 31 30 30 31 31 32 32 33 34 36 37 37 37 38 39 39 39 38 37 36 36 36 37 37 40 45 50 54 58 60 61 61 58 54 51 49 48 48 50 50 48 48 50 54 57 59 62 65
41 42 42 42 42 42 42 42 42 42 41 40 40 39 38 37 37 36 36 36 36 36 36 37 38 40 41 41 43 44 43 42 42 42 41 40 40 39 39 42 46 48 48 49 50 51 51 49 47 46 45 44 45 46 47 48 51 54 56 56 56 58 59
50 51 51 52 52 51 51 51 51 52 51 51 51 50 48 47 46 45 44 43 42 43 43 43 44 46 48 51 53 55 55 55 56 56 55 54 53 52 55 61 63 62 60 60 61 61 60 59 59 59 59 60 62 64 64 66 68 70 69 69 69 68 66
58 60 61 61 60 59 57 56 56 56 56 56 56 55 52 50 48 47 46 44 43 43 43 43 43 44 46 48 50 52 54 55 57 57 56 54 52 53 59 63 62 60 62 65 67 66 65 64 65 66 67 70 74 76 76 77 80 81 79 77 78 77 74
58 58 60 60 60 59 58 56 55 55 54 52 52 51 49 47 46 45 43 42 42 42 42 42 42 41 42 43 44 45 47 48 50 51 50 48 48 49 51 52 51 51 54 56 58 59 60 60 61 63 66 69 73 76 77 77 77 78 76 73 73 73 72
53 53 54 55 56 56 56 55 53 52 51 50 49 49 48 47 46 45 44 43 45 46 46 47 47 47 49 49 49 51 52 53 54 54 54 54 54 54 53 52 52 53 54 56 57 59 60 62 63 66 69 71 74 78 80 78 74 72 72 70 70 71 74
50 50 52 54 56 57 57 56 55 54 54 54 55 56 56 55 54 54 53 52 54 55 56 56 55 55 56 56 58 60 60 59 58 57 56 57 57 56 55 54 53 53 54 56 58 58 59 61 63 66 67 69 72 75 76 74 69 66 66 69 72 75 79
57 59 61 63 66 67 67 66 65 64 64 64 65 66 65 64 62 61 59 58 58 59 59 59 58 57 56 55 57 60 61 59 57 55 53 53 52 52 52 52 52 52 52 53 54 55 57 60 62 63 63 64 63 62 61 62 63 63 64 68 73 76 78
69 70 71 72 73 74 74 73 71 69 67 67 67 67 66 64 62 59 57 56 56 56 55 54 54 54 53 53 55 58 59 58 56 54 51 49 47 48 48 49 48 47 46 45 46 48 50 53 55 56 57 56 52 50 50 52 55 57 58 59 63 68 73
70 69 68 68 68 70 71 71 68 66 63 61 61 61 60 59 57 55 52 51 51 51 50 49 49 49 49 49 50 53 55 55 54 52 49 46 43 42 42 43 41 38 36 36 37 40 43 46 48 49 50 49 47 46 47 48 49 49 49 49 50 54 61
64 63 61 61 62 63 64 64 62 59 56 54 53 53 52 51 50 47 45 44 43 42 41 41 42 41 40 41 41 43 45 46 45 44 42 40 37 34 34 34 33 30 30 31 33 36 38 40 41 41 41 42 42 41 41 42 42 44 45 45 46 46 51
56 54 52 51 51 52 52 52 50 48 45 44 43 42 41 41 39 36 35 33 32 31 31 31 31 30 29 29 29 30 31 32 32 31 30 28 27 25 24 24 24 25 25 26 26 28 28 29 29 29 30 31 31 32 33 34 36 39 41 43 43 45 51
42 40 38 36 36 35 35 35 35 32 31 29 29 28 27 27 26 25 23 22 21 21 22 21 21 20 20 20 20 20 20 21 20 20 19 19 18 18 17 16 18 19 19 19 18 18 18 19 19 20 21 22 22 23 25 26 27 29 31 32 33 37 43
24 24 22 21 21 20 20 20 21 20 20 19 18 17 17 17 17 16 16 16 15 15 15 15 15 15 14 14 15 15 15 15 15 15 15 15 14 14 14 14 15 15 15 15 15 15 15 16 16 17 18 18 19 19 20 20 21 21 22 22 23 26 29
15 14 14 14 14 14 14 14 15 15 15 15 14 14 14 13 13 13 13 13 13 13 13 13 13 13 13 12 13 13 13 13 13 13 13 13 13 13 13 13 13 13 14 14 14 14 15 15 15 16 16 16 16 17 17 17 17 18 18 19 19 21 22
12 12 12 12 12 13 13 13 13 13 13 13 13 13 13 13 13 12 12 12 12 12 12 12 11 11 11 11 11 12 12 12 12 12 12 12 12 12 12 12 12 12 12 13 14 14 14 14 14 14 14 15 15 15 15 16 16 16 17 17 18 19 21
12 11 12 12 12 12 12 13 12 12 12 12 12 12 12 12 12 11 11 11 12 11 11 11 11 11 11 11 11 11 11 11 11 11 12 12 12 12 12 12 12 12 12 13 14 14 14 15 15 14 15 15 15 15 15 15 15 16 16 16 17 18 18
11 10 11 11 11 11 12 11 11 11 11 11 12 11 11 11 11 11 11 10 10 11 11 10 11 10 10 10 10 10 11 11 11 11 12 12 12 12 12 12 12 13 13 13 14 15 16 16 16 16 16 16 16 16 16 16 16 16 15 15 16 16 17
11 10 10 10 10 11 11 11 11 10 10 11 11 11 11 11 10 10 10 10 10 10 10 10 11 11 11 11 11 11 11 11 11 12 12 12 12 12 13 13 13 13 13 14 14 15 15 16 16 16 16 16 17 17 17 17 17 17 16 16 16 16 17
12 11 10 10 10 10 10 10 10 10 10 10 11 11 11 11 11 10 10 10 10 11 11 11 11 11 11 11 11 11 11 11 11 11 11 12 12 12 12 12 12 13 13 13 13 14 14 14 15 15 15 16 16 17 17 18 18 18 18 18 17 17 17
Wind_Speed
109 110 110 111 111 112 113 114 114 115 116 116 116 116 116 116 116 115 114 113 113 113 113 112 112 111 111 112 111 110 110 110 110 110 109 109 108 108 108 109 109 107 104 103 103 103 105 105 105 104 104 104 105 106 107 107 107 107 108 108 108 108 109
109 109 109 110 110 111 111 112 113 113 114 114 114 114 114 114 114 114 113 113 113 113 114 114 113 113 113 114 113 112 112 111 111 110 110 109 109 109 109 110 110 109 107 105 105 105 105 106 106 105 105 105 106 107 108 108 109 110 111 111 111 111 111
109 110 110 110 110 111 112 112 113 113 114 114 114 115 115 116 116 116 115 115 115 115 116 115 115 114 114 115 114 113 112 112 111 111 111 110 110 110 110 111 112 112 110 109 108 107 107 107 108 108 108 108 108 109 110 110 111 113 114 114 114 114 115
111 111 111 111 112 112 113 114 114 115 115 116 116 116 117 117 118 118 118 117 117 117 117 116 116 115 116 116 115 114 114 114 114 114 113 113 113 113 113 113 114 114 114 113 112 111 110 110 110 110 110 110 110 111 112 113 114 115 116 117 118 118 119
112 112 112 112 113 113 114 115 115 116 116 117 117 118 118 118 119 119 119 119 118 118 118 118 117 117 117 118 117 117 117 117 117 117 117 116 116 116 116 117 117 117 117 116 115 114 114 114 113 113 113 113 113 114 114 115 116 117 118 120 121 122 122
113 113 114 114 114 115 115 116 117 118 118 118 119 119 120 120 120 120 120 120 120 120 120 119 119 119 120 120 120 120 120 121 121 121 120 120 120 120 120 120 120 120 120 119 118 117 117 116 116 116 116 116 116 117 117 117 118 119 121 122 124 124 123
115 115 115 116 116 117 117 118 119 119 120 121 121 122 122 122 122 122 122 122 122 122 122 122 122 122 122 122 122 122 123 123 123 123 122 122 122 122 122 122 121 121 121 121 120 119 119 118 118 118 118 118 118 118 118 119 119 120 121 122 122 122 122
116 117 117 118 118 118 119 119 120 121 121 122 123 123 123 124 124 124 124 124 124 124 124 124 123 123 123 123 123 123 124 124 124 124 124 123 124 124 123 123 123 123 123 122 122 121 121 120 120 119 119 119 119 119 119 120 121 121 121 121 121 121 121
117 118 119 119 120 120 121 121 122 123 123 124 124 125 125 125 125 125 125 125 125 125 125 125 125 125 125 125 125 125 125 126 126 126 126 126 126 126 126 126 126 125 125 125 124 124 123 123 122 122 122 122 122 122 122 123 123 123 123 123 123 122 122
117 118 119 119 120 121 122 123 124 124 125 126 126 127 127 127 127 127 127 127 127 127 128 128 128 128 128 128 128 128 128 128 129 129 129 129 129 129 129 129 129 128 128 128 127 127 126 126 125 124 125 125 125 125 126 126 126 125 125 125 124 123 124
117 118 119 119 120 121 122 123 124 125 126 127 127 128 128 128 128 128 129 129 129 129 129 130 130 130 130 131 130 130 131 131 131 131 131 132 132 132 131 131 131 130 130 130 129 128 128 127 126 126 127 127 127 127 128 128 127 126 126 125 124 123 123
116 117 118 119 119 120 121 122 123 124 125 126 127 128 128 128 128 128 128 129 129 129 129 130 130 130 130 130 131 131 131 131 131 132 132 132 132 132 131 131 131 131 130 130 129 129 128 127 126 126 126 126 127 127 127 126 125 124 123 122 121 120 120
115 116 117 117 118 118 119 119 120 121 122 123 124 125 125 126 126 126 126 126 127 127 127 128 128 128 128 128 128 129 129 129 130 130 130 131 130 130 129 128 129 129 128 128 128 127 125 124 124 124 124 124 124 125 124 123 121 121 119 118 117 115 115
114 114 114 115 115 115 115 116 116 117 118 118 119 120 121 121 121 121 121 121 122 123 123 124 124 124 124 124 125 125 126 126 127 127 127 127 127 126 126 125 125 125 125 125 124 123 122 122 122 121 121 121 122 122 121 120 119 118 116 114 113 112 111
111 111 111 111 111 111 112 113 113 114 114 115 115 115 115 115 115 115 115 115 116 117 118 118 119 119 119 120 120 121 121 122 123 124 124 123 123 123 122 122 121 121 121 122 121 120 119 119 118 118 118 118 118 118 118 118 117 115 113 112 110 109 108
108 108 108 108 108 108 108 109 109 110 110 111 111 111 111 111 110 110 110 110 110 111 112 112 113 114 114 115 116 116 117 118 119 120 120 119 119 119 118 118 117 118 118 118 118 117 117 116 116 115 115 115 115 115 115 115 114 112 110 109 108 107 106
106 105 106 105 106 105 105 105 106 106 107 107 107 108 108 107 107 107 106 106 107 107 107 108 109 110 110 111 111 112 113 114 115 116 116 116 115 115 114 113 113 114 114 114 114 115 114 114 114 113 112 112 111 111 112 111 110 108 108 107 106 104 104
105 105 106 106 106 106 105 105 105 105 105 106 106 106 106 106 105 105 104 104 105 105 105 104 105 106 106 107 108 109 110 111 112 113 113 112 112 112 110 109 109 111 111 111 111 111 111 111 111 111 110 109 108 108 108 107 106 105 105 104 103 103 103
104 105 105 106 106 106 106 106 106 106 106 106 107 107 107 106 105 105 104 104 104 104 104 104 103 104 105 105 106 108 109 110 111 111 112 112 112 110 108 108 110 111 110 110 110 110 110 110 109 109 108 108 107 107 106 105 105 105 104 103 103 103 102
104 104 104 105 106 106 106 106 106 107 107 107 108 108 108 107 107 106 105 105 104 104 104 104 104 104 104 105 106 107 109 110 110 111 112 112 111 109 108 110 112 111 111 111 111 110 110 110 109 108 108 107 107 107 107 106 106 106 106 105 104 103 102
103 103 103 104 105 106 106 107 107 107 107 107 108 108 108 108 107 107 106 105 105 105 105 105 104 104 104 105 105 106 107 108 109 110 111 110 109 108 109 110 110 109 109 109 108 108 108 107 107 106 106 105 105 106 106 106 105 105 105 105 103 102 100
101 101 102 103 104 105 106 106 106 106 107 107 107 107 108 108 108 107 107 106 105 105 105 105 105 104 104 105 105 106 106 107 107 108 108 108 108 108 108 108 107 106 105 105 104 104 104 103 103 103 103 103 103 103 104 105 104 103 103 102 100 98 97
99 100 101 101 103 104 105 105 105 106 106 106 107 107 107 108 107 107 107 106 105 105 105 105 105 105 104 104 105 105 106 106 107 107 106 106 107 107 107 107 106 104 103 103 103 102 102 102 103 103 103 103 103 104 104 105 105 103 101 100 99 98 98
98 98 99 100 101 102 103 104 105 106 106 106 106 107 107 107 108 107 107 106 106 105 106 106 106 105 105 105 105 105 107 107 107 107 107 106 106 107 107 107 106 105 104 104 103 103 103 103 104 105 105 106 105 105 104 104 104 104 102 101 101 100 100
97 98 99 100 100 102 104 105 106 107 107 107 108 108 108 109 109 109 109 108 107 107 107 106 106 106 106 106 106 107 108 108 108 108 108 107 107 106 107 107 107 106 105 104 103 103 104 104 105 106 107 107 106 105 104 103 103 104 104 103 102 101 101
100 100 101 102 102 104 105 107 108 109 110 110 110 110 110 111 111 111 110 109 109 108 108 107 107 107 107 107 107 107 108 109 109 109 109 109 108 107 107 108 108 107 105 103 103 103 104 104 106 106 107 107 106 105 104 104 104 104 104 103 102 101 100
102 103 103 103 104 105 107 108 110 110 111 111 111 112 112 112 112 112 112 111 109 108 108 107 107 107 107 107 106 106 107 108 108 108 108 108 108 107 107 107 107 105 104 103 103 104 105 105 106 106 106 106 106 105 105 105 105 104 104 104 103 102 101
103 104 104 104 104 105 106 108 109 110 110 110 110 111 111 112 112 111 111 110 109 108 107 106 106 106 105 105 104 104 104 105 105 105 106 106 106 105 104 104 103 103 102 102 103 103 103 104 104 104 104 104 104 104 104 104 105 105 105 105 104 103 103
102 103 103 102 103 103 104 105 106 108 108 108 108 108 109 109 109 109 108 108 106 105 104 104 104 103 103 102 102 101 101 101 101 101 101 102 102 102 101 99 99 99 100 100 100 100 100 100 100 100 101 101 101 101 102 103 103 104 104 104 103 103 104
100 100 99 99 99 100 100 101 102 104 105 105 105 105 105 104 104 104 104 104 103 102 101 100 99 99 99 98 98 97 97 97 96 96 96 97 97 97 96 95 95 95 95 96 96 96 96 96 96 96 97 97 98 98 99 100 101 101 101 100 100 101 102
97 96 95 94 94 95 96 96 97 98 99 100 100 100 100 100 99 99 98 98 97 97 97 95 95 94 94 93 93 93 92 92 92 92 92 92 92 92 92 91 91 91 91 91 92 92 92 93 93 93 94 94 95 96 96 97 97 98 97 97 97 98 99
93 92 91 90 90 90 91 92 93 94 94 94 94 95 95 95 95 94 93 92 93 93 92 92 91 90 89 89 88 88 88 88 88 88 88 88 88 88 88 88 87 87 86 87 88 89 89 89 89 89 90 90 91 92 92 93 94 94 94 94 94 95 96
90 88 88 87 87 87 87 89 90 90 90 90 90 90 90 90 91 90 89 88 89 89 88 88 88 87 86 85 85 84 84 84 84 84 84 84 84 84 84 84 83 83 83 84 85 85 85 86 86 86 86 87 87 88 88 89 90 91 91 91 91 92 93
87 85 84 83 83 83 84 85 86 86 86 86 86 86 86 86 87 86 85 85 84 84 84 84 84 83 83 82 82 81 81 80 80 80 80 81 81 80 80 80 79 79 80 81 81 81 81 82 83 83 83 84 84 85 85 86 87 87 88 88 88 89 89
85 83 81 79 79 79 80 80 81 81 81 81 82 82 82 82 82 82 81 81 80 80 80 80 80 80 79 78 78 78 77 77 77 76 77 77 76 76 76 75 75 76 76 77 77 77 78 78 79 79 80 80 81 81 82 83 84 84 85 85 85 85 86
82 81 79 77 76 76 76 76 76 75 75 76 77 77 77 77 77 77 77 76 76 76 76 76 76 75 75 74 74 74 73 73 73 72 72 72 72 72 72 72 72 72 73 73 73 74 74 74 75 76 76 76 77 77 78 79 80 81 82 82 82 82 82
Wind_Direction
270 270 271 271 271 271 272 272 272 272 273 273 273 274 274 274 274 274 274 274 274 274 275 275 275 275 275 275 275 275 275 275 275 275 275 275 275 275 275 274 274 274 273 272 272 272 272 272 272 273 273 273 273 274 274 274 274 274 274 274 274 275 275
271 271 271 272 272 272 272 273 273 273 273 273 273 274 274 274 274 274 274 274 274 274 274 274 275 275 275 275 275 275 275 275 275 275 275 275 275 275 275 275 275 275 274 274 273 272 272 273 273 273 273 273 273 274 274 274 275 275 274 275 275 275 275
271 271 271 271 272 272 272 272 272 273 273 273 273 273 273 273 273 273 273 273 273 273 274 274 274 275 275 275 275 275 275 275 275 275 275 275 275 275 275 276 276 275 275 275 274 274 274 273 273 273 273 273 273 273 273 274 274 274 275 275 275 275 275
271 271 271 271 271 271 272 272 272 272 272 272 272 272 272 273 273 273 273 273 273 274 274 274 275 275 275 275 276 276 276 276 276 276 276 275 275 276 275 275 275 275 275 275 275 275 274 274 273 273 273 273 273 273 273 273 273 274 274 274 275 275 275
271 271 271 271 271 272 272 272 272 272 272 273 273 273 273 273 274 274 274 274 275 275 275 275 275 276 276 276 276 276 276 276 276 276 276 276 276 276 275 275 275 275 275 275 275 274 274 274 274 274 273 273 273 273 273 273 273 273 273 274 274 274 274
272 272 272 272 272 272 272 273 273 273 273 274 274 274 274 274 274 274 275 275 275 275 275 275 275 275 275 276 276 276 276 276 276 276 276 276 276 275 275 275 275 275 275 275 275 274 274 274 274 273 273 273 273 273 273 273 273 273 273 273 273 274 274
272 272 272 272 273 273 273 273 273 273 274 274 274 274 274 274 274 274 274 274 274 274 274 274 274 274 274 274 274 274 274 275 275 275 275 275 274 274 274 274 274 274 274 274 274 274 274 273 273 273 273 273 273 273 273 273 273 272 272 272 273 274 275
272 272 272 272 272 273 273 273 273 273 273 273 273 273 274 274 274 274 274 274 274 274 274 274 274 274 274 274 274 274 274 274 274 274 274 274 274 273 273 273 273 273 273 273 273 273 273 273 273 273 273 273 273 273 273 273 272 272 273 273 273 274 274
272 272 273 273 273 273 273 273 273 273 273 273 273 273 273 273 273 274 274 274 274 274 274 274 274 274 274 274 274 274 274 274 274 274 274 273 273 273 273 273 273 273 273 273 273 273 273 273 273 273 273 273 273 273 272 272 272 273 273 273 273 274 274
272 272 272 273 273 273 273 273 273 273 273 273 273 273 273 273 273 273 273 274 274 274 274 274 274 274 274 274 274 274 274 274 274 274 274 274 274 274 274 274 274 274 274 274 274 274 274 274 274 274 274 273 273 273 273 273 273 273 273 273 274 275 275
271 271 271 271 271 272 272 272 272 272 273 273 273 273 273 273 273 273 273 273 273 274 274 274 274 274 274 274 274 274 274 274 274 274 274 274 274 274 274 274 274 275 274 274 274 274 274 274 274 274 274 274 273 273 273 273 273 273 273 274 274 275 275
272 272 272 272 271 271 272 272 272 272 272 273 273 273 273 273 273 273 273 273 273 273 273 274 274 274 274 274 274 274 274 274 274 274 274 274 274 274 274 275 275 275 275 275 275 275 275 275 274 274 274 274 273 273 273 273 273 274 274 274 274 274 275
274 274 274 274 274 274 274 274 273 273 273 273 273 273 273 273 273 273 273 273 273 273 273 273 273 274 274 274 274 274 274 274 274 274 274 274 274 274 274 275 275 275 275 275 275 275 275 275 274 274 274 274 274 273 274 274 274 274 274 274 274 274 274
276 276 276 276 276 275 275 275 274 274 273 273 272 272 272 272 272 272 272 272 272 272 272 273 273 273 273 273 273 273 273 273 273 273 273 274 274 274 274 274 274 274 274 274 274 274 274 274 274 274 273 273 273 273 274 274 274 274 274 274 274 274 274
277 277 277 277 276 276 276 275 275 274 274 274 273 273 273 272 272 272 272 271 271 272 272 272 272 272 272 272 272 272 272 272 272 272 273 273 273 273 273 273 274 274 274 274 274 273 273 273 273 273 272 273 273 273 273 273 273 274 274 274 274 274 274
278 278 277 277 277 276 276 275 275 275 275 274 274 274 273 273 272 272 272 271 271 271 271 271 271 271 271 272 272 272 272 272 272 272 272 272 272 272 272 272 272 272 272 273 273 273 273 272 272 272 272 272 272 272 273 273 273 274 274 274 274 274 273
280 280 279 279 278 278 277 277 276 276 276 275 275 274 274 273 272 272 272 271 271 270 270 270 271 271 271 271 271 271 271 271 271 271 272 272 271 271 271 272 272 271 271 271 271 271 272 272 272 272 272 272 272 272 272 273 273 274 274 273 273 273 273
281 281 280 280 280 279 279 279 278 278 277 277 276 276 275 274 274 273 273 272 272 271 271 270 270 270 271 271 271 271 271 271 271 271 271 271 271 271 271 271 271 271 270 270 270 270 270 271 271 271 272 272 272 272 272 273 273 273 272 272 272 272 271
280 280 280 280 280 280 280 280 279 279 279 278 278 277 277 276 276 275 275 274 273 273 272 272 271 271 271 271 271 271 271 271 271 271 271 271 270 271 271 271 270 270 270 270 270 270 270 270 270 271 271 272 272 272 272 272 271 271 271 271 271 270 270
280 280 280 280 280 280 280 280 279 279 279 279 278 278 278 278 277 277 276 275 275 274 274 273 273 272 271 271 271 270 271 271 271 271 271 270 271 271 270 270 269 269 270 270 270 270 270 270 271 271 271 271 271 271 271 271 270 270 270 270 269 270 270
280 280 280 280 280 280 280 279 279 279 279 279 278 278 278 278 278 277 277 276 276 276 275 275 274 274 273 272 272 271 271 271 271 271 271 271 271 271 270 270 270 270 270 270 270 270 271 271 271 271 271 271 271 271 271 270 270 270 270 269 269 270 270
281 281 280 280 280 280 279 279 279 279 279 278 278 278 278 278 277 277 277 277 276 276 276 275 275 274 274 273 273 273 272 272 272 272 272 272 272 272 271 271 271 271 271 271 271 271 271 272 272 271 271 271 271 270 270 270 270 269 270 270 271 271 271
280 280 280 280 279 279 279 279 279 279 278 278 278 278 277 277 277 277 277 277 276 276 276 275 275 274 274 274 274 273 273 273 273 273 273 273 273 273 273 273 272 272 272 272 272 272 272 272 272 272 271 271 270 270 269 270 270 270 271 271 271 271 271
280 280 279 279 279 279 279 279 279 279 278 278 278 277 277 277 277 277 277 276 276 276 275 275 275 275 275 274 274 274 274 274 274 274 274 273 273 273 274 273 273 273 273 272 272 272 272 272 272 271 271 270 270 269 269 270 270 271 271 270 270 270 270
280 280 280 280 280 279 279 279 279 279 279 278 278 278 278 278 277 277 277 276 276 276 276 275 275 275 275 275 275 275 275 275 275 275 275 274 274 274 274 274 274 273 273 273 272 272 272 272 272 271 271 271 271 271 271 271 270 270 270 269 269 268 268
281 280 280 280 280 279 279 279 279 279 279 279 279 278 278 278 278 278 278 277 277 277 276 276 276 276 276 275 275 275 275 275 275 275 275 275 275 274 274 274 274 273 273 273 273 273 273 272 272 271 271 271 271 271 271 270 270 269 269 269 268 268 267
281 281 280 280 279 279 279 278 278 278 279 279 279 278 278 278 278 278 278 278 278 277 277 277 276 276 276 275 275 275 274 274 274 274 274 274 274 274 273 273 273 274 274 274 273 273 272 271 271 270 270 270 270 270 270 269 269 269 269 269 269 268 268
281 280 280 279 279 279 278 278 278 278 278 278 278 278 278 278 278 278 278 278 278 278 277 277 277 276 276 276 275 275 274 274 274 273 273 273 273 273 273 273 273 273 273 272 271 271 270 270 269 269 269 269 269 269 269 268 268 268 268 268 268 268 268
281 280 280 280 280 279 279 278 278 278 278 278 278 277 277 277 277 278 278 278 278 278 277 277 277 277 276 276 275 275 274 274 273 273 273 272 272 272 272 272 272 271 271 270 270 269 269 269 268 268 268 268 267 267 267 266 266 266 265 265 266 266 266
282 281 281 281 280 280 279 279 278 278 278 278 278 278 278 277 277 277 277 278 278 278 277 277 276 276 276 275 275 274 274 273 273 272 272 272 271 271 271 271 270 269 269 269 269 268 268 267 267 267 266 266 265 265 265 264 264 264 264 264 264 264 264
283 282 282 282 281 280 280 279 279 278 278 278 278 278 278 278 278 277 277 277 277 277 277 276 276 275 275 274 274 274 273 273 272 272 271 271 270 270 270 269 269 268 268 268 268 267 267 266 266 265 265 264 264 264 264 264 264 264 264 264 264 263 263
284 284 284 283 282 281 281 280 279 279 278 278 278 278 278 278 278 278 277 277 277 277 277 276 276 275 275 274 274 273 273 272 272 271 271 270 270 269 269 269 268 268 268 267 267 266 266 266 265 265 264 264 264 264 264 264 264 264 264 263 263 263 263
285 285 284 284 283 282 281 280 280 279 279 279 278 278 278 278 278 278 278 277 277 277 277 277 276 276 275 275 274 274 273 272 272 271 271 270 270 269 269 268 268 268 267 267 266 266 266 265 265 264 264 264 263 263 263 263 263 263 263 263 263 262 262
286 285 284 284 283 282 281 280 280 280 280 279 279 279 278 278 278 278 278 277 277 277 277 277 276 276 275 275 275 274 273 273 272 271 271 270 269 269 269 268 268 267 266 266 266 265 265 265 265 264 264 263 263 263 263 263 262 262 262 262 262 262 262
287 286 285 284 283 283 282 281 280 280 280 280 279 279 279 279 278 278 278 278 277 277 277 276 276 276 275 275 274 273 273 272 272 271 270 270 269 269 268 268 267 266 266 265 265 265 265 264 264 264 264 263 263 263 263 263 262 262 262 262 262 262 262
288 288 287 286 285 284 283 282 281 281 281 280 280 279 279 279 279 279 278 278 278 277 276 276 276 275 275 274 274 273 272 272 271 270 270 269 269 268 268 267 266 266 265 265 265 264 264 264 264 263 263 263 263 263 263 262 262 262 262 262 262 262 262